{"data":{"norad_id":62677,"intl_designator":"2025-009BW","name":"ELEVATION-1","alt_names":[],"object_type":"PAYLOAD","status":"ACTIVE","operator":null,"country":"UK","launch_date":"2025-01-14","launch_site_code":"AFWTR","launch_vehicle":null,"mission":null,"orbit_class":"UNKNOWN","rcs_meters":null,"size_class":null,"mass_kg":null,"dimensions":null,"purposes":[],"wikipedia_slug":null,"has_3d_model":false,"image_url":null,"decayed_at":null,"tle_current":{"epoch":"2026-05-25T04:57:05.283360Z","epoch_age_seconds":67920,"freshness":"FRESH","line1":"1 62677U 25009BW  26145.20631115  .00028428  00000+0  69817-3 0  9998","line2":"2 62677  97.3836 230.1594 0003887  59.5526 300.6104 15.40629128133287","mean_motion":15.40629128,"eccentricity":0.0003887,"inclination_deg":97.3836,"raan_deg":230.1594,"arg_perigee_deg":59.5526,"mean_anomaly_deg":300.6104,"bstar":0.00069817,"rev_number":13328,"period_min":93.468309395744,"perigee_km":441.59950611416,"apogee_km":446.90323083181,"semimajor_km":6822.388368473,"source":"CELESTRAK","updated_at":"2026-05-25T13:38:03.167177Z"}}}